Погода Троицко-Печерск

Погода Троицко-Печерск : погода сейчас, прогноз погоды и архив. Всё, что Вы хотите узнать о погоде Троицко-Печерск!

Хотите узнать прогноз погоды Троицко-Печерск? Тогда Вам сюда: Погода Троицко-Печерск

Поиск расширенной информации на нашем сайте:

Другие новости

Новости СМИ2

Главная страница сайта

Новости сайта

02.10.2013

Напоминаем, что на нашем новом сайте вы можете получить высокодетализированные прогнозы погоды по пунктам России, СНГ и мира (включающие важные для авиации метеовеличины, такие как направление и скорость ветра, видимость, явления погоды, количество и форма облачности, нижняя и верхняя граница облачности), а также ознакомиться с разнообразными материалами по авиационной метеорологии и подборкой полезных ссылок на эту тему.

Сайт Метеоцентр.Азия посвящён разработке технологий оптимизации авиаметеорологического обслуживания, включая проектирование и перспективное создание нескольких автоматизированных авиаметеорологических систем:
- система выпуска высокодетальных прогностических карт явлений погоды для нижнего воздушного пространства по России и ближнему зарубежью;
- система верификации прогнозов TAF (выпускаемых синоптиками официальных АМСГ РФ и ближнего зарубежья) и AUTOTAF (выпускаемых сайтом Метеоцентр.Азия) - выявление ошибок, онлайн-сопоставление с фактической погодой METAR, автоматическое внесение коррективов в прогнозы при резком отклонении фактической погоды от прогноза, подсчёт оправдываемости прогнозов по элементам и в целом;
- система обработки, анализа и отображения авиаметеорологической информации для применения провайдерами метеорологической информации.

Рекомендуем: Заказать где купить постельное белье.

Погода Троицко-Печерск - сегодня

Время (UTC), дата Ветер
(°,м/с) 
Видим.   Явления Облачность Т
(°С)
Тd
(°С)
f(%) Тe
(°С)
Pmin
(гПа)
dP
(гПа)
Po
(мм)
O2
(г/м3)
Тmin Tmax R s Состояние
почвы
15 25.04.17 340 (С) 10 км  слаб. дождь  10/0 средняя 
[As op]
+3.3 -0.9 74 +3  1008.2  2.3  744  296    +4.9  0.4     
18 25.04.17 310 (СЗ) 20000 м  {дождь}  10/0 средняя 
[Ac und]
+1.4 -1.4 82 +2  1011.3  746  299           
21 25.04.17 330 (СЗ) 20000 м    10/0 средняя 
[Ac und]
+0.7 -5.8 62 1013.8  2.3  748  301           
00 26.04.17 320 (СЗ) 20000 м    10/0 средняя 
[Ac und]
-1.6 -7.2 66 -3  1016.4  2.4  749  304           
03 26.04.17 340 (С) 20000 м    8/0 средняя, верхняя 
[Ac As|Ci fib]
-0.4 -8.3 55 -1  1018.6  2.2  751  304  -1.7         
06 26.04.17 030 (СВ) 20000 м    8/0 верхняя 
[Ci fib]
+3.1 -9 41 +3  1019.9  1.5  752  301           
09 26.04.17 040 (СВ) 20000 м    3/0 верхняя 
[Ci fib]
+5.4 -10.1 32 +4  1020.1  0.4  752  298           
12 26.04.17 120 (ЮВ) 20000 м    3/0 верхняя 
[Ci fib]
+6.5 -10.6 28 +6  1019.9  -0.2  752  297           
15 26.04.17 120 (ЮВ) 20000 м    1/0 верхняя 
[Ci fib]
+5.5 -10.4 31 +5  1019.5  -0.5  752  298    +6.9       
18 26.04.17 170 (Ю) 20000 м    ясно 
+0.2 -9.4 48 -1  1019.9  0.2  752  304           
21 26.04.17 180 (Ю) 20000 м    ясно 
-2.1 -6.4 72 -2  1019.7  -0.4  752  306           
00 27.04.17 160 (Ю) 20000 м    4/0 верхняя 
[Ci fib]
-2 -3.2 91 -3  1017.4  -2.2  750  305           
03 27.04.17 160 (Ю) 20000 м    8/0 верхняя 
[Cs]
+2 -1.6 77 1013.7  -3.4  748  299  -2.4      35  равномерный
мокрый или
старый снег
100% 
06 27.04.17 170 (Ю) 6-10{13}  4000 м  слаб. ливневой снег  10/10 210 м кучево-дожд. 
[Cb cap]
+1.4 +0.2 92 -2  1011.2  -2.4  746  299           
09 27.04.17 190 (Ю) 4{10}  10 км  слаб. ливневой снег  10/10 210 м кучево-дожд. 
[Cb cap]
+2 +1 93 1010.6  -0.6  745  298           
12 27.04.17 190 (Ю) 20000 м  {ливн. осадки}  9/9 210 м кучево-дожд. 
[Cb cap]
+4.6 +3 89 +3  1010.9  0.5  746  295           
15 27.04.17 180 (Ю) 20000 м    9/8 240 м кучево-дожд., верхняя 
[Cb cap|Ci fib]
+4.7 +3.1 89 +4  1010.8  0.1  746  295    +5.3     
18 27.04.17 190 (Ю) 20000 м    9/8 270 м кучево-дожд., верхняя 
[Cb cap|Ci fib]
+3.5 +2.7 94 +3  1011.3  0.4  746  296           
21 27.04.17 210 (ЮЗ) 10 км  слаб. ливневой дождь  10/10 330 м кучево-дожд. 
[Cb cap]
+3.1 +2.5 96 +3  1010.6  0.4  745  297           
00 28.04.17 200 (Ю) 20000 м  {ливн. осадки}  10/10 330 м кучево-дожд. 
[Cb cap]
+2.4 +1.3 92 +2  1009.9  0.4  745  297           
03 28.04.17 240 (ЮЗ) 20000 м    3/0 средняя, верхняя 
[Ac As|Ci fib]
+5.1 +0.6 73 +5  1009.5  -0.3  745  294  +0.7      35   
06 28.04.17 270 (З) 20000 м    8/6 600 м верхняя 
[Cu med, cong|Ci fib]
+7.7 -3.7 44 +7  1009.3  745  292           
09 28.04.17 270 (З) 5{12}  20000 м    8/6 540 м кучево-дожд., верхняя 
[Cb cap|Ci fib]
+8.2 -7.2 33 +7  1009.8  0.5  745  292           
12 28.04.17 260 (З) 7-15{15}  20000 м    8/6 570 м кучево-дожд., верхняя 
[Cb cap|Ci fib]
+7.1 -6.4 38 +5  1011.8  1.9  746  294           
15 28.04.17 280 (З) 5-10{14}  20000 м    8/4 300 м кучево-дожд., средняя, верхняя 
[Cb cap|Ac trans|Ci fib]
+4.6 -3.7 55 +2  1014.5  2.5  748  297    +9.3       
Время (UTC), дата Ветер
(°,м/с) 
Видим.   Явления Облачность Т
(°С)
Тd
(°С)
f(%) Тe
(°С)
Pmin
(гПа)
dP
(гПа)
Po
(мм)
O2
(г/м3)
Тmin Tmax R s Состояние
почвы

Для получения пояснительной информации подведите курсор к названию столбца.

ПОГОДА Троицко-Печерск - архив

Всё, что Вы хотите узнать о погоде Троицко-Печерск - удобно и подробно!

Выберите нужную дату (начиная с 1 января 2015* года) и нажмите кнопку "Найти".
Будут отображены архивные сводки погоды по пункту Троицко-Печерск, начиная с указанной даты.


Отображать данные в формате CSV (для использования в таблицах Excel)


Внимание! Наш архив погоды предназначен исключительно для личного некоммерческого использования в познавательных целях. Если Вам необходимы официальные справки о состоянии погоды (для производственных, юридических, коммерческих и т.п. целей), обращайтесь в органы Росгидромета.

*Примечание: данная дата относится к архиву по метеостанциям СССР (Россия, СНГ, Балтия).
Архив по метеостанциям Зарубежной Европы и Азии (кроме Китая) хранится 10 дней, по другим регионам земного шара (Китай, Африка, Америка, Австралия, Океания) - 1 день.

Троицко-Печерск - район местоположения метеостанции


Название, широта, долгота, высота метеостанции:
Троицко-Печерск 62.7°ш. 56.2°д. 139 м над ур. моря [Российская Федерация]

Дополнительная информация

В oтличие oт бoльшинства пoгoдных сайтoв мы публикуем пoдрoбную метеoинфoрмацию в детальнoм прoфессиoнальнoм фoрмате.

Характеристики температуры и влажнoсти вoздуха измеряются на высoте 2 м в тени вдали oт зданий и деревьев.
Скoрoсть ветра измеряется на высoте 10 м (на урoвне рoста челoвека скoрoсть ветра ниже в 1.5-2 раза). Если метеoстанция нахoдится в гoрoде или в лесу, тo скoрoсть ветра занижена на 2-4 м/с пo сравнению с oткрытым местoм. Скoрoсть ветра над акватoриями крупных рек и oзёр, а также на вершинах хoлмoв на 2-5 м/с выше, чем в oбычных услoвиях.
Атмoсфернoе давление в разных тoчках местнoсти мoжет значительнo oтличаться oт давления на метеoстанции, в зависимoсти oт услoвий рельефа (при пoдъёме на 10 м давление пoнижается примернo на 1 мм рт.ст.).